Regional Weather Roundup
Issued by NWS

Home | Current Version | Previous Version | Graphics & Text | Print | Product List | Glossary On
Versions: 1 2 3 4 5 6 7 8 9 10 11 12 13 14 15 16 17 18 19 20 21 22 23 24 25 26 27 28 29 30 31 32 33 34 35 36 37 38 39 40 41 42 43 44 45 46 47 48 49 50
000
ASUS45 KTFX 230210
RWRMT
MONTANA REGIONAL WEATHER ROUNDUP
NATIONAL WEATHER SERVICE GREAT FALLS MT
800 PM MDT SUN OCT 22 2017

NOTE: "FAIR" INDICATES FEW OR NO CLOUDS BELOW 12000 FEET WITH NO
SIGNIFICANT WEATHER AND/OR OBSTRUCTIONS TO VISIBILITY.

MTZ001>007-043-230300-
WEST OF THE DIVIDE

CITY           SKY/WX    TMP DP  RH WIND       PRES   REMARKS
KALISPELL      MOCLDY    46  34  62 SW3       30.17R
MISSOULA       CLOUDY    46  35  65 N7        30.28R
BUTTE          CLOUDY    40  32  73 W10       30.26R
MULLAN PASS    CLOUDY    33  27  78 VRB7      30.25S WCI  27
ANACONDA         N/A     41  28  60 W20G25    30.23R
DEER LODGE       N/A     43  30  61 CALM      30.25R
EUREKA           N/A     52  27  37 MISG      30.14R
HAMILTON         N/A     46  30  53 SW5       30.31R
LIBBY            N/A     46  36  66 CALM      30.18R
PLAINS           N/A     52  31  44 SW15      30.24R
$$

MTZ008-052>055-230300-
SOUTHWEST MONTANA

CITY           SKY/WX    TMP DP  RH WIND       PRES   REMARKS
BOZEMAN        CLOUDY    48  26  42 NW12      30.21R
DILLON         CLOUDY    40  31  70 SW8       30.24R
W YELLOWSTONE  CLOUDY    41  37  87 S10       30.22R
ENNIS          CLOUDY    45  32  61 NE8       30.28R
THREE FORKS      N/A     48  29  48 N3        30.19R
TWIN BRIDGES     N/A     45  19  35 CALM      30.21R
$$

MTZ009-010-012-014-046-048-049-054-230300-
EAST SLOPES AND CENTRAL MONTANA

CITY           SKY/WX    TMP DP  RH WIND       PRES   REMARKS
CUT BANK       CLEAR     40  28  62 W23       29.99R
GREAT FALLS    CLEAR     43  23  45 W16       30.06R
MALMSTROM AFB  CLEAR     48  24  38 W25G35    30.05R
HELENA         PTCLDY    48  27  44 W22G31    30.18R
BOWMANS CRNR     N/A     43  22  44 W22       30.08R
CHOTEAU          N/A     45  25  45 W16G23    30.08R
FAIRFIELD        N/A     44  26  49 W16       30.07R
POWER            N/A     42  26  52 W21G26    30.03R
RAYNESFORD       N/A     48  22  35 W35G45    30.03R
ULM              N/A     49  23  36 W25G36    30.09R
$$

MTZ011-013-016-021-045-047-050-051-230300-
NORTH CENTRAL MONTANA

CITY           SKY/WX    TMP DP  RH WIND       PRES   REMARKS
HAVRE          MOCLDY    51  30  44 W26G36    29.90R
LEWISTOWN      CLEAR     47  22  37 W22G29    29.99R
N BAR RANCH      N/A     46  19  34 NW13G24   30.00R
CHINOOK          N/A     54  27  35 W24G35    29.88R
DENTON           N/A     50  22  33 W30G40    29.94R
GEYSER           N/A     47  21  35 W32G43    30.00R
GRASS RANGE      N/A     51  20  29 W35G47    29.93R
JUDITH GAP       N/A     47  18  31 NW36G49   30.02R
STANFORD         N/A     47  19  32 W36G51    30.01R
WINIFRED         N/A     50  21  32 W32G44    29.95R
$$

MTZ017>020-022>027-061-062-230300-
NORTHEAST MONTANA

CITY           SKY/WX    TMP DP  RH WIND       PRES   REMARKS
GLASGOW        MOCLDY    51  35  54 W21G28    29.76R
JORDAN           N/A     55  24  30 W26G43    29.85R
SIDNEY         PTCLDY    54  39  57 W26G38    29.71R
WOLF POINT     CLOUDY    52  38  58 W14       29.74R
MALTA          CLOUDY    48  37  66 NW35G59   29.88R
PLENTYWOOD       N/A     52  37  58 W15       29.65R
POPLAR           N/A     52  36  54 W14       29.73R
SCOBEY           N/A     50  33  51 W23       29.69R
$$

MTZ028>42-056>058-230300-
SOUTHCENTRAL AND SOUTHEAST MONTANA

CITY           SKY/WX    TMP DP  RH WIND       PRES   REMARKS
BAKER          LGT RAIN  50  44  80 W14       29.84R
BILLINGS       PTCLDY    52  29  41 NW22G28   30.01R
LIVINGSTON     CLOUDY    50  24  36 W26G37    30.12R
MILES CITY     PTCLDY    57  32  38 NW29G39   29.85R
BIG TIMBER     CLEAR     50  27  40 W40G54    30.06R
EKALAKA          N/A     50  39  65 W18       29.87R
FORSYTH          N/A     57  27  30 W18G32    29.89R
HARLOWTON        N/A     47  23  38 W40G54    30.03R
LAUREL           N/A     50  30  46 NW7       30.03R
$$

REGIONAL REPORTS...DAKOTAS

CITY           SKY/WX    TMP DP  RH WIND       PRES   REMARKS
WILLISTON      PTCLDY    54  41  62 SW12      29.66R
MINOT          MOCLDY    56  39  53 SW13      29.56S
DICKINSON      CLOUDY    54  41  61 W17       29.73R
BEACH          MOCLDY    48  39  71 W14       29.81R
CROSBY           N/A     52  37  58 W16       29.60R
TIOGA          MOCLDY    54  36  50 W17G23    29.63R
BISMARCK       CLOUDY    62  39  42 W16G23    29.67R
GRAND FORKS    CLOUDY    58  42  55 SW8       29.63F
FARGO          CLOUDY    60  32  34 S14       29.70F
BUFFALO SD       N/A     49  44  83 NW13      29.78R
RAPID CITY     PTCLDY    54  30  40 W7        29.86R
$$

REGIONAL REPORTS...WYOMING/IDAHO/WASHINGTON

CITY           SKY/WX    TMP DP  RH WIND       PRES   REMARKS
GILLETTE       MOCLDY    57  29  34 NW18G25   29.98R
SHERIDAN       CLOUDY    55  40  56 NW29G36   30.01R
BUFFALO WY     MOCLDY    54  32  43 N20G32    30.02R
CODY           CLOUDY    52  36  54 W17G30    30.08R
YELLOWSTONE LA   N/A     36  35  96 W8        30.23R WCI  30
IDAHO FALLS    CLOUDY    52  38  58 SW22G31   30.24F
SALMON         PTCLDY    42  38  85 VRB3      30.30R
BOISE          CLOUDY    54  46  74 N6        30.36S
SPOKANE        MOCLDY    50  36  58 SW20      30.25S
$$

REGIONAL REPORTS...ALBERTA

CITY           SKY/WX    TMP DP  RH WIND       PRES   REMARKS
EDMONTON       MOCLDY    41  37  87 W8        29.76R
CALGARY        PTCLDY    45  21  39 W16G29    29.89R
LETHBRIDGE     PTCLDY    45  25  45 W21G26    29.94R
MEDICINE HAT   MOCLDY    48  36  61 W13       29.84R
$$

REGIONAL REPORTS...SASKATCHEWAN

CITY           SKY/WX    TMP DP  RH WIND       PRES   REMARKS
SWIFT CURRENT  CLEAR     43  30  61 W14G21    29.71R
REGINA         CLEAR     39  34  81 NW15      29.61R WCI  31
SASKATOON      CLOUDY    37  36  93 NW5       29.65R
$$



USA.gov is the U.S. government's official web portal to all federal, state and local government web resources and services.